| time (UTC) | temp F | wind direction | speed MPH | gust MPH | rain 1hr in | rain 24hr in | rain mn in | humidity % | barometer mb |
| 20260510174951 | 54 | 26 | 10.0 | 16.0 | 0.00 | 0.00 | 0.00 | 62 | 1013.2 |
| 20260510174452 | 54 | 81 | 11.0 | 13.0 | 0.00 | 0.00 | 0.00 | 62 | 1013.2 |
| 20260510172451 | 54 | 36 | 2.0 | 14.0 | 0.00 | 0.00 | 0.00 | 63 | 1013.3 |
| 20260510171451 | 55 | 56 | 7.0 | 14.0 | 0.00 | 0.00 | 0.00 | 62 | 1013.4 |
| 20260510170953 | 55 | 61 | 6.0 | 14.0 | 0.00 | 0.00 | 0.00 | 63 | 1013.4 |
| 20260510170452 | 55 | 53 | 6.0 | 14.0 | 0.00 | 0.00 | 0.00 | 61 | 1013.5 |
| 20260510165951 | 56 | 80 | 4.0 | 19.0 | 0.00 | 0.00 | 0.00 | 62 | 1013.5 |
| 20260510165451 | 55 | 82 | 2.0 | 19.0 | 0.00 | 0.00 | 0.00 | 64 | 1013.6 |
| 20260510164951 | 55 | 65 | 3.0 | 14.0 | 0.00 | 0.00 | 0.00 | 62 | 1013.6 |
| 20260510164452 | 55 | 36 | 7.0 | 14.0 | 0.00 | 0.00 | 0.00 | 62 | 1013.7 |
| 20260510163951 | 55 | 59 | 3.0 | 15.0 | 0.00 | 0.00 | 0.00 | 62 | 1013.8 |
| 20260510163451 | 55 | 52 | 7.0 | 15.0 | 0.00 | 0.00 | 0.00 | 63 | 1013.8 |
| 20260510162952 | 55 | 44 | 15.0 | 19.0 | 0.00 | 0.00 | 0.00 | 64 | 1013.9 |
| 20260510161452 | 54 | 59 | 3.0 | 14.0 | 0.00 | 0.00 | 0.00 | 65 | 1013.9 |
| 20260510160952 | 54 | 90 | 8.0 | 14.0 | 0.00 | 0.00 | 0.00 | 64 | 1014.0 |
| 20260510160452 | 54 | 66 | 2.0 | 18.0 | 0.00 | 0.00 | 0.00 | 65 | 1014.1 |
| 20260510155952 | 54 | 53 | 5.0 | 18.0 | 0.00 | 0.00 | 0.00 | 65 | 1014.1 |
| 20260510155451 | 54 | 38 | 11.0 | 18.0 | 0.00 | 0.00 | 0.00 | 65 | 1014.2 |
| 20260510154951 | 54 | 75 | 13.0 | 15.0 | 0.00 | 0.00 | 0.00 | 66 | 1014.2 |
| 20260510154451 | 55 | 40 | 15.0 | 15.0 | 0.00 | 0.00 | 0.00 | 66 | 1014.3 |
| 20260510153952 | 54 | 68 | 5.0 | 13.0 | 0.00 | 0.00 | 0.00 | 66 | 1014.3 |
| 20260510153452 | 54 | 26 | 6.0 | 15.0 | 0.00 | 0.00 | 0.00 | 66 | 1014.4 |
| 20260510152952 | 54 | 69 | 9.0 | 15.0 | 0.00 | 0.00 | 0.00 | 67 | 1014.5 |
| 20260510152451 | 54 | 39 | 12.0 | 19.0 | 0.00 | 0.00 | 0.00 | 68 | 1014.5 |
| 20260510151951 | 54 | 45 | 3.0 | 19.0 | 0.00 | 0.00 | 0.00 | 67 | 1014.5 |
| 20260510150952 | 55 | 49 | 4.0 | 13.0 | 0.00 | 0.00 | 0.00 | 68 | 1014.6 |
| 20260510145952 | 55 | 80 | 3.0 | 14.0 | 0.00 | 0.00 | 0.00 | 67 | 1014.7 |
| 20260510145451 | 55 | 39 | 6.0 | 13.0 | 0.00 | 0.00 | 0.00 | 68 | 1014.8 |
| 20260510144951 | 55 | 20 | 8.0 | 13.0 | 0.00 | 0.00 | 0.00 | 69 | 1014.7 |
| 20260510144452 | 54 | 73 | 10.0 | 14.0 | 0.00 | 0.00 | 0.00 | 68 | 1014.8 |
| 20260510143952 | 54 | 36 | 7.0 | 14.0 | 0.00 | 0.00 | 0.00 | 68 | 1014.9 |
| 20260510143451 | 54 | 34 | 5.0 | 14.0 | 0.00 | 0.00 | 0.00 | 69 | 1015.0 |
| 20260510142952 | 54 | 70 | 10.0 | 15.0 | 0.00 | 0.00 | 0.00 | 70 | 1015.0 |
| 20260510142452 | 54 | 78 | 3.0 | 16.0 | 0.00 | 0.00 | 0.00 | 69 | 1015.1 |
| 20260510141952 | 54 | 11 | 5.0 | 16.0 | 0.00 | 0.00 | 0.00 | 69 | 1015.1 |
| 20260510141452 | 54 | 18 | 8.0 | 13.0 | 0.00 | 0.00 | 0.00 | 69 | 1015.1 |
| 20260510140953 | 54 | 47 | 7.0 | 13.0 | 0.00 | 0.00 | 0.00 | 70 | 1015.2 |
| 20260510140451 | 54 | 59 | 12.0 | 18.0 | 0.00 | 0.00 | 0.00 | 70 | 1015.2 |
| 20260510135951 | 54 | 24 | 13.0 | 18.0 | 0.00 | 0.00 | 0.00 | 69 | 1015.2 |
| 20260510135451 | 54 | 13 | 7.0 | 18.0 | 0.00 | 0.00 | 0.00 | 69 | 1015.2 |
| 20260510134953 | 54 | 80 | 7.0 | 17.0 | 0.00 | 0.00 | 0.00 | 70 | 1015.1 |
| 20260510134451 | 54 | 28 | 6.0 | 12.0 | 0.00 | 0.00 | 0.00 | 70 | 1015.2 |
| 20260510133452 | 54 | 42 | 2.0 | 13.0 | 0.00 | 0.00 | 0.00 | 71 | 1015.2 |
| 20260510132951 | 54 | 53 | 5.0 | 13.0 | 0.00 | 0.00 | 0.00 | 71 | 1015.3 |
| 20260510132451 | 54 | 62 | 6.0 | 16.0 | 0.00 | 0.00 | 0.00 | 71 | 1015.3 |
| 20260510131951 | 54 | 78 | 7.0 | 16.0 | 0.00 | 0.00 | 0.00 | 71 | 1015.4 |
| 20260510131451 | 54 | 57 | 9.0 | 14.0 | 0.00 | 0.00 | 0.00 | 72 | 1015.4 |
| 20260510130951 | 54 | 82 | 3.0 | 14.0 | 0.00 | 0.00 | 0.00 | 72 | 1015.4 |
| 20260510130451 | 53 | 55 | 7.0 | 14.0 | 0.00 | 0.00 | 0.00 | 73 | 1015.4 |
| 20260510125951 | 53 | 51 | 10.0 | 14.0 | 0.00 | 0.00 | 0.00 | 73 | 1015.4 |
| 20260510124451 | 53 | 45 | 9.0 | 13.0 | 0.00 | 0.00 | 0.00 | 73 | 1015.6 |
| 20260510123451 | 53 | 37 | 13.0 | 13.0 | 0.00 | 0.00 | 0.00 | 74 | 1015.7 |
| 20260510122953 | 53 | 55 | 6.0 | 15.0 | 0.00 | 0.00 | 0.00 | 73 | 1015.7 |
| 20260510122451 | 53 | 57 | 7.0 | 15.0 | 0.00 | 0.00 | 0.00 | 73 | 1015.7 |
| 20260510121951 | 53 | 55 | 11.0 | 17.0 | 0.00 | 0.00 | 0.00 | 74 | 1015.7 |
| 20260510121451 | 53 | 32 | 8.0 | 20.0 | 0.00 | 0.00 | 0.00 | 73 | 1015.7 |
| 20260510115451 | 55 | 10 | 7.0 | 17.0 | 0.00 | 0.00 | 0.00 | 72 | 1015.9 |
| 20260510114951 | 55 | 66 | 8.0 | 17.0 | 0.00 | 0.00 | 0.00 | 72 | 1015.8 |
| 20260510114451 | 55 | 46 | 12.0 | 17.0 | 0.00 | 0.00 | 0.00 | 73 | 1015.9 |
| 20260510113951 | 55 | 22 | 13.0 | 16.0 | 0.00 | 0.00 | 0.00 | 72 | 1015.9 |
| 20260510112451 | 55 | 67 | 9.0 | 17.0 | 0.00 | 0.00 | 0.00 | 72 | 1015.9 |
| 20260510111951 | 55 | 41 | 10.0 | 17.0 | 0.00 | 0.00 | 0.00 | 72 | 1016.0 |
| 20260510111451 | 55 | 60 | 4.0 | 17.0 | 0.00 | 0.00 | 0.00 | 72 | 1016.0 |
| 20260510110951 | 55 | 39 | 5.0 | 17.0 | 0.00 | 0.00 | 0.00 | 72 | 1016.2 |
| 20260510110451 | 55 | 55 | 9.0 | 14.0 | 0.00 | 0.00 | 0.00 | 71 | 1016.1 |
| 20260510105951 | 55 | 63 | 11.0 | 15.0 | 0.00 | 0.00 | 0.00 | 70 | 1016.2 |
| 20260510105451 | 55 | 56 | 5.0 | 15.0 | 0.00 | 0.00 | 0.00 | 71 | 1016.3 |
| 20260510104951 | 55 | 57 | 7.0 | 14.0 | 0.00 | 0.00 | 0.00 | 70 | 1016.3 |
| 20260510104451 | 55 | 69 | 9.0 | 17.0 | 0.00 | 0.00 | 0.00 | 70 | 1016.4 |
| 20260510103451 | 55 | 88 | 11.0 | 17.0 | 0.00 | 0.00 | 0.00 | 70 | 1016.4 |
| 20260510102951 | 55 | 65 | 9.0 | 16.0 | 0.00 | 0.00 | 0.00 | 70 | 1016.5 |
| 20260510102451 | 56 | 94 | 7.0 | 14.0 | 0.00 | 0.00 | 0.00 | 70 | 1016.5 |
| 20260510101951 | 56 | 37 | 12.0 | 14.0 | 0.00 | 0.00 | 0.00 | 68 | 1016.3 |
| 20260510101451 | 57 | 71 | 13.0 | 15.0 | 0.00 | 0.00 | 0.00 | 69 | 1016.4 |
| 20260510100951 | 56 | 80 | 3.0 | 15.0 | 0.00 | 0.00 | 0.00 | 70 | 1016.3 |
| 20260510095951 | 55 | 41 | 5.0 | 16.0 | 0.00 | 0.00 | 0.00 | 71 | 1016.4 |
| 20260510095451 | 56 | 46 | 12.0 | 15.0 | 0.00 | 0.00 | 0.00 | 69 | 1016.4 |
| 20260510094951 | 56 | 101 | 6.0 | 16.0 | 0.00 | 0.00 | 0.00 | 71 | 1016.4 |
| 20260510094451 | 56 | 15 | 9.0 | 18.0 | 0.00 | 0.00 | 0.00 | 69 | 1016.3 |
| 20260510093952 | 56 | 46 | 6.0 | 18.0 | 0.00 | 0.00 | 0.00 | 70 | 1016.4 |
| 20260510093451 | 55 | 63 | 14.0 | 15.0 | 0.00 | 0.00 | 0.00 | 72 | 1016.4 |
| 20260510092951 | 54 | 76 | 12.0 | 13.0 | 0.00 | 0.00 | 0.00 | 73 | 1016.4 |
| 20260510092451 | 54 | 53 | 9.0 | 13.0 | 0.00 | 0.00 | 0.00 | 73 | 1016.5 |
| 20260510091951 | 54 | 49 | 7.0 | 14.0 | 0.00 | 0.00 | 0.00 | 72 | 1016.5 |
| 20260510091451 | 54 | 65 | 12.0 | 15.0 | 0.00 | 0.00 | 0.00 | 73 | 1016.6 |
| 20260510090951 | 53 | 39 | 9.0 | 15.0 | 0.00 | 0.00 | 0.00 | 74 | 1016.6 |
| 20260510090451 | 53 | 62 | 9.0 | 16.0 | 0.00 | 0.00 | 0.00 | 75 | 1016.6 |
| 20260510085451 | 53 | 64 | 16.0 | 16.0 | 0.00 | 0.00 | 0.00 | 74 | 1016.9 |
| 20260510084951 | 53 | 86 | 4.0 | 13.0 | 0.00 | 0.00 | 0.00 | 74 | 1016.8 |
| 20260510084451 | 53 | 85 | 4.0 | 14.0 | 0.00 | 0.00 | 0.00 | 75 | 1016.9 |
| 20260510083951 | 53 | 34 | 12.0 | 19.0 | 0.00 | 0.00 | 0.00 | 74 | 1016.9 |
| 20260510083451 | 53 | 51 | 10.0 | 19.0 | 0.00 | 0.00 | 0.00 | 74 | 1016.9 |
| 20260510082951 | 53 | 80 | 5.0 | 19.0 | 0.00 | 0.00 | 0.00 | 74 | 1016.9 |
| 20260510082451 | 54 | 48 | 5.0 | 16.0 | 0.00 | 0.00 | 0.00 | 74 | 1016.9 |
| 20260510081951 | 54 | 42 | 4.0 | 16.0 | 0.00 | 0.00 | 0.00 | 75 | 1016.9 |
| 20260510081451 | 53 | 66 | 9.0 | 11.0 | 0.00 | 0.00 | 0.00 | 77 | 1017.0 |
| 20260510080951 | 52 | 24 | 10.0 | 14.0 | 0.00 | 0.00 | 0.00 | 78 | 1017.0 |
| 20260510080451 | 52 | 78 | 7.0 | 14.0 | 0.00 | 0.00 | 0.00 | 79 | 1017.0 |
| 20260510075951 | 51 | 32 | 10.0 | 15.0 | 0.00 | 0.00 | 0.00 | 80 | 1017.0 |
| 20260510075451 | 51 | 49 | 5.0 | 16.0 | 0.00 | 0.00 | 0.00 | 81 | 1017.0 |
| 20260510074951 | 50 | 51 | 13.0 | 16.0 | 0.00 | 0.00 | 0.00 | 85 | 1017.0 |
| 20260510073951 | 50 | 61 | 6.0 | 14.0 | 0.00 | 0.00 | 0.00 | 85 | 1017.0 |
| 20260510072451 | 49 | 60 | 10.0 | 15.0 | 0.00 | 0.00 | 0.00 | 86 | 1017.0 |
| 20260510071451 | 49 | 59 | 3.0 | 13.0 | 0.00 | 0.00 | 0.00 | 86 | 1017.0 |
| 20260510070951 | 48 | 51 | 4.0 | 17.0 | 0.00 | 0.00 | 0.00 | 87 | 1017.0 |
| 20260510070451 | 48 | 65 | 6.0 | 17.0 | 0.00 | 0.00 | 0.00 | 87 | 1016.9 |
| 20260510065951 | 48 | 38 | 4.0 | 12.0 | 0.00 | 0.00 | 0.00 | 87 | 1016.9 |
| 20260510065451 | 48 | 68 | 8.0 | 12.0 | 0.00 | 0.00 | 0.00 | 87 | 1016.8 |
| 20260510064951 | 48 | 49 | 3.0 | 13.0 | 0.00 | 0.00 | 0.00 | 87 | 1016.8 |
| 20260510064451 | 48 | 82 | 8.0 | 13.0 | 0.00 | 0.00 | 0.00 | 87 | 1016.8 |
| 20260510063951 | 48 | 39 | 3.0 | 12.0 | 0.00 | 0.00 | 0.00 | 87 | 1016.8 |
| 20260510063451 | 48 | 75 | 5.0 | 10.0 | 0.00 | 0.00 | 0.00 | 87 | 1016.8 |
| 20260510062950 | 48 | 69 | 3.0 | 10.0 | 0.00 | 0.00 | 0.00 | 87 | 1016.8 |
| 20260510062451 | 48 | 65 | 6.0 | 11.0 | 0.00 | 0.00 | 0.00 | 87 | 1016.8 |
| 20260510061951 | 48 | 74 | 3.0 | 11.0 | 0.00 | 0.00 | 0.00 | 87 | 1016.8 |
| 20260510060952 | 48 | 50 | 2.0 | 12.0 | 0.00 | 0.00 | 0.00 | 87 | 1016.7 |
| 20260510060451 | 48 | 27 | 10.0 | 13.0 | 0.00 | 0.00 | 0.00 | 87 | 1016.7 |
| 20260510055952 | 48 | 65 | 4.0 | 13.0 | 0.00 | 0.00 | 0.00 | 87 | 1016.6 |
| 20260510054451 | 48 | 58 | 1.0 | 12.0 | 0.00 | 0.00 | 0.00 | 87 | 1016.6 |
| 20260510053951 | 48 | 44 | 3.0 | 12.0 | 0.00 | 0.00 | 0.00 | 87 | 1016.6 |
| 20260510052951 | 48 | 64 | 3.0 | 15.0 | 0.00 | 0.00 | 0.00 | 87 | 1016.7 |
| 20260510052451 | 48 | 63 | 13.0 | 17.0 | 0.00 | 0.00 | 0.00 | 87 | 1016.7 |
| 20260510051951 | 48 | 59 | 2.0 | 17.0 | 0.00 | 0.00 | 0.00 | 87 | 1016.7 |
| 20260510051451 | 48 | 78 | 5.0 | 15.0 | 0.00 | 0.00 | 0.00 | 87 | 1016.7 |
| 20260510050951 | 48 | 30 | 9.0 | 15.0 | 0.00 | 0.00 | 0.00 | 87 | 1016.6 |
| 20260510050451 | 48 | 59 | 10.0 | 11.0 | 0.00 | 0.00 | 0.00 | 87 | 1016.7 |
| 20260510045951 | 48 | 52 | 5.0 | 15.0 | 0.00 | 0.00 | 0.00 | 87 | 1016.7 |
| 20260510044951 | 48 | 60 | 2.0 | 14.0 | 0.00 | 0.00 | 0.00 | 87 | 1016.7 |
| 20260510044451 | 48 | 360 | 6.0 | 14.0 | 0.00 | 0.00 | 0.00 | 87 | 1016.6 |
| 20260510043952 | 48 | 12 | 8.0 | 14.0 | 0.00 | 0.00 | 0.00 | 87 | 1016.6 |
| 20260510043451 | 48 | 18 | 8.0 | 14.0 | 0.00 | 0.00 | 0.00 | 87 | 1016.6 |
| 20260510042952 | 48 | 38 | 12.0 | 14.0 | 0.00 | 0.00 | 0.00 | 87 | 1016.6 |
| 20260510042451 | 48 | 43 | 2.0 | 12.0 | 0.00 | 0.00 | 0.00 | 87 | 1016.7 |
| 20260510041951 | 48 | 14 | 9.0 | 14.0 | 0.00 | 0.00 | 0.00 | 87 | 1016.6 |
| 20260510041451 | 48 | 44 | 5.0 | 14.0 | 0.00 | 0.00 | 0.00 | 87 | 1016.6 |
| 20260510040952 | 48 | 29 | 9.0 | 14.0 | 0.00 | 0.00 | 0.00 | 86 | 1016.6 |
| 20260510035451 | 48 | 30 | 6.0 | 14.0 | 0.00 | 0.00 | 0.00 | 86 | 1016.9 |
| 20260510034951 | 48 | 43 | 5.0 | 14.0 | 0.00 | 0.00 | 0.00 | 86 | 1016.9 |
| 20260510034451 | 48 | 33 | 5.0 | 13.0 | 0.00 | 0.00 | 0.00 | 86 | 1016.9 |
| 20260510033951 | 48 | 36 | 9.0 | 13.0 | 0.00 | 0.00 | 0.00 | 86 | 1016.8 |
| 20260510033451 | 48 | 62 | 10.0 | 12.0 | 0.00 | 0.00 | 0.00 | 86 | 1016.9 |
| 20260510032451 | 48 | 38 | 2.0 | 13.0 | 0.00 | 0.00 | 0.00 | 86 | 1017.0 |
| 20260510031951 | 48 | 21 | 4.0 | 13.0 | 0.00 | 0.00 | 0.00 | 86 | 1017.0 |
| 20260510030950 | 48 | 52 | 9.0 | 14.0 | 0.00 | 0.00 | 0.00 | 85 | 1017.0 |
| 20260510030450 | 48 | 42 | 4.0 | 12.0 | 0.00 | 0.00 | 0.00 | 85 | 1017.0 |
| 20260510025950 | 48 | 46 | 5.0 | 14.0 | 0.00 | 0.00 | 0.00 | 85 | 1017.0 |
| 20260510025450 | 48 | 46 | 12.0 | 14.0 | 0.00 | 0.00 | 0.00 | 85 | 1017.0 |
| 20260510024950 | 48 | 22 | 6.0 | 17.0 | 0.00 | 0.00 | 0.00 | 85 | 1016.9 |
| 20260510024451 | 48 | 42 | 9.0 | 17.0 | 0.00 | 0.00 | 0.00 | 85 | 1016.9 |
| 20260510023952 | 48 | 29 | 5.0 | 17.0 | 0.00 | 0.00 | 0.00 | 84 | 1016.9 |
| 20260510023450 | 48 | 31 | 5.0 | 15.0 | 0.00 | 0.00 | 0.00 | 84 | 1017.0 |
| 20260510022951 | 48 | 69 | 12.0 | 15.0 | 0.00 | 0.00 | 0.00 | 84 | 1016.9 |
| 20260510021951 | 49 | 46 | 5.0 | 16.0 | 0.00 | 0.00 | 0.00 | 83 | 1016.9 |
| 20260510021450 | 49 | 72 | 11.0 | 13.0 | 0.00 | 0.00 | 0.00 | 83 | 1016.9 |
| 20260510020951 | 49 | 51 | 10.0 | 15.0 | 0.00 | 0.00 | 0.00 | 83 | 1017.0 |
| 20260510020450 | 49 | 12 | 2.0 | 15.0 | 0.00 | 0.00 | 0.00 | 83 | 1017.0 |
| 20260510014951 | 49 | 49 | 3.0 | 15.0 | 0.00 | 0.00 | 0.00 | 82 | 1017.0 |
| 20260510014450 | 50 | 28 | 8.0 | 15.0 | 0.00 | 0.00 | 0.00 | 82 | 1017.1 |
| 20260510013451 | 50 | 32 | 4.0 | 13.0 | 0.00 | 0.00 | 0.00 | 81 | 1017.2 |
| 20260510012951 | 50 | 40 | 4.0 | 13.0 | 0.00 | 0.00 | 0.00 | 80 | 1017.3 |
| 20260510012450 | 50 | 17 | 11.0 | 12.0 | 0.00 | 0.00 | 0.00 | 80 | 1017.2 |
| 20260510011950 | 50 | 23 | 11.0 | 12.0 | 0.00 | 0.00 | 0.00 | 79 | 1017.2 |
| 20260510011450 | 50 | 28 | 6.0 | 12.0 | 0.00 | 0.00 | 0.00 | 79 | 1017.3 |
| 20260510010951 | 50 | 44 | 5.0 | 11.0 | 0.00 | 0.00 | 0.00 | 78 | 1017.3 |
| 20260510010451 | 51 | 62 | 3.0 | 11.0 | 0.00 | 0.00 | 0.00 | 77 | 1017.3 |
| 20260510005950 | 51 | 63 | 4.0 | 12.0 | 0.00 | 0.00 | 0.00 | 76 | 1017.2 |
| 20260510005451 | 51 | 22 | 8.0 | 13.0 | 0.00 | 0.00 | 0.00 | 75 | 1017.2 |
| 20260510004950 | 51 | 46 | 5.0 | 13.0 | 0.00 | 0.00 | 0.00 | 74 | 1017.1 |
| 20260510004450 | 51 | 37 | 11.0 | 13.0 | 0.00 | 0.00 | 0.00 | 74 | 1017.1 |
| 20260510003451 | 51 | 55 | 7.0 | 12.0 | 0.00 | 0.00 | 0.00 | 73 | 1017.1 |
| 20260510002950 | 52 | 24 | 3.0 | 14.0 | 0.00 | 0.00 | 0.00 | 72 | 1017.2 |
| 20260510001950 | 52 | 42 | 6.0 | 15.0 | 0.00 | 0.00 | 0.00 | 70 | 1017.2 |
| 20260510001452 | 52 | 63 | 13.0 | 15.0 | 0.00 | 0.00 | 0.00 | 69 | 1017.2 |
| 20260510000951 | 52 | 53 | 10.0 | 15.0 | 0.00 | 0.00 | 0.00 | 68 | 1017.2 |
| 20260510000450 | 52 | 30 | 10.0 | 13.0 | 0.00 | 0.00 | 0.00 | 67 | 1017.1 |
| 20260509235452 | 52 | 80 | 8.0 | 17.0 | 0.00 | 0.00 | 0.00 | 64 | 1017.0 |
| 20260509234950 | 53 | 35 | 6.0 | 17.0 | 0.00 | 0.00 | 0.00 | 63 | 1017.0 |
| 20260509233950 | 53 | 34 | 10.0 | 15.0 | 0.00 | 0.00 | 0.00 | 62 | 1017.0 |
| 20260509233452 | 53 | 55 | 5.0 | 15.0 | 0.00 | 0.00 | 0.00 | 63 | 1016.9 |
| 20260509232950 | 53 | 57 | 4.0 | 14.0 | 0.00 | 0.00 | 0.00 | 64 | 1016.9 |
| 20260509232450 | 53 | 55 | 6.0 | 14.0 | 0.00 | 0.00 | 0.00 | 64 | 1016.9 |
| 20260509231950 | 53 | 46 | 6.0 | 11.0 | 0.00 | 0.00 | 0.00 | 65 | 1016.9 |
| 20260509231450 | 53 | 57 | 7.0 | 11.0 | 0.00 | 0.00 | 0.00 | 65 | 1016.9 |
| 20260509230950 | 53 | 40 | 9.0 | 9.0 | 0.00 | 0.00 | 0.00 | 64 | 1016.8 |
| 20260509230450 | 53 | 26 | 2.0 | 7.0 | 0.00 | 0.00 | 0.00 | 64 | 1017.0 |
| 20260509225450 | 54 | 35 | 5.0 | 9.0 | 0.00 | 0.00 | 0.00 | 64 | 1016.8 |
| 20260509224950 | 54 | 56 | 3.0 | 9.0 | 0.00 | 0.00 | 0.00 | 64 | 1016.8 |
| 20260509224450 | 54 | 65 | 1.0 | 7.0 | 0.00 | 0.00 | 0.00 | 65 | 1016.8 |
| 20260509223450 | 54 | 21 | 1.0 | 7.0 | 0.00 | 0.00 | 0.00 | 66 | 1016.8 |
| 20260509222450 | 54 | 54 | 3.0 | 6.0 | 0.00 | 0.00 | 0.00 | 66 | 1016.8 |
| 20260509221950 | 54 | 55 | 1.0 | 4.0 | 0.00 | 0.00 | 0.00 | 66 | 1016.8 |
| 20260509221451 | 54 | 61 | 2.0 | 4.0 | 0.00 | 0.00 | 0.00 | 66 | 1016.7 |
| 20260509220950 | 54 | 64 | 1.0 | 4.0 | 0.00 | 0.00 | 0.00 | 66 | 1016.6 |
| 20260509220450 | 54 | 66 | 2.0 | 4.0 | 0.00 | 0.00 | 0.00 | 66 | 1016.7 |
| 20260509215950 | 54 | 63 | 2.0 | 4.0 | 0.00 | 0.00 | 0.00 | 66 | 1016.7 |
| 20260509215450 | 54 | 72 | 3.0 | 3.0 | 0.00 | 0.00 | 0.00 | 66 | 1016.6 |
| 20260509214950 | 55 | 68 | 1.0 | 3.0 | 0.00 | 0.00 | 0.00 | 65 | 1016.5 |
| 20260509214450 | 55 | 67 | 0.0 | 3.0 | 0.00 | 0.00 | 0.00 | 64 | 1016.6 |
| 20260509213950 | 56 | 67 | 1.0 | 4.0 | 0.00 | 0.00 | 0.00 | 63 | 1016.6 |
| 20260509212950 | 56 | 69 | 1.0 | 7.0 | 0.00 | 0.00 | 0.00 | 63 | 1016.6 |
| 20260509212450 | 56 | 85 | 2.0 | 3.0 | 0.00 | 0.00 | 0.00 | 63 | 1016.6 |
| 20260509211951 | 56 | 85 | 0.0 | 3.0 | 0.00 | 0.00 | 0.00 | 62 | 1016.5 |
| 20260509211450 | 57 | 87 | 1.0 | 2.0 | 0.00 | 0.00 | 0.00 | 61 | 1016.5 |
| 20260509210950 | 57 | 88 | 0.0 | 3.0 | 0.00 | 0.00 | 0.00 | 60 | 1016.4 |
| 20260509210450 | 58 | 88 | 0.0 | 3.0 | 0.00 | 0.00 | 0.00 | 59 | 1016.3 |
| 20260509205950 | 58 | 90 | 0.0 | 2.0 | 0.00 | 0.00 | 0.00 | 57 | 1016.2 |
| 20260509205450 | 59 | 88 | 0.0 | 5.0 | 0.00 | 0.00 | 0.00 | 56 | 1016.1 |
| 20260509204950 | 59 | 89 | 0.0 | 5.0 | 0.00 | 0.00 | 0.00 | 55 | 1016.1 |
| 20260509204450 | 59 | 79 | 2.0 | 2.0 | 0.00 | 0.00 | 0.00 | 56 | 1016.1 |
| 20260509202950 | 59 | 74 | 0.0 | 3.0 | 0.00 | 0.00 | 0.00 | 57 | 1015.9 |
| 20260509202450 | 60 | 75 | 1.0 | 3.0 | 0.00 | 0.00 | 0.00 | 57 | 1015.9 |
| 20260509201450 | 61 | 78 | 1.0 | 5.0 | 0.00 | 0.00 | 0.00 | 54 | 1015.8 |
| 20260509200950 | 61 | 88 | 2.0 | 5.0 | 0.00 | 0.00 | 0.00 | 53 | 1015.7 |
| 20260509200450 | 61 | 78 | 1.0 | 5.0 | 0.00 | 0.00 | 0.00 | 52 | 1015.7 |
| 20260509195950 | 62 | 78 | 1.0 | 8.0 | 0.00 | 0.00 | 0.00 | 52 | 1015.7 |
| 20260509194950 | 62 | 125 | 2.0 | 8.0 | 0.00 | 0.00 | 0.00 | 51 | 1015.5 |
| 20260509194450 | 62 | 85 | 0.0 | 6.0 | 0.00 | 0.00 | 0.00 | 51 | 1015.3 |
| 20260509193950 | 63 | 80 | 3.0 | 9.0 | 0.00 | 0.00 | 0.00 | 51 | 1015.3 |
| 20260509193450 | 63 | 92 | 2.0 | 9.0 | 0.00 | 0.00 | 0.00 | 51 | 1015.3 |
| 20260509192950 | 63 | 121 | 4.0 | 9.0 | 0.00 | 0.00 | 0.00 | 50 | 1015.2 |
| 20260509191950 | 64 | 77 | 5.0 | 5.0 | 0.00 | 0.00 | 0.00 | 51 | 1015.2 |
| 20260509191450 | 64 | 82 | 3.0 | 6.0 | 0.00 | 0.00 | 0.00 | 51 | 1015.2 |
| 20260509190950 | 64 | 95 | 2.0 | 6.0 | 0.00 | 0.00 | 0.00 | 52 | 1015.1 |
| 20260509190450 | 64 | 69 | 0.0 | 6.0 | 0.00 | 0.00 | 0.00 | 51 | 1015.1 |
| 20260509185450 | 65 | 59 | 2.0 | 9.0 | 0.00 | 0.00 | 0.00 | 50 | 1014.9 |
| 20260509184950 | 65 | 55 | 2.0 | 11.0 | 0.00 | 0.00 | 0.00 | 49 | 1014.9 |
| 20260509184450 | 65 | 99 | 2.0 | 11.0 | 0.00 | 0.00 | 0.00 | 49 | 1014.9 |
| 20260509183950 | 65 | 61 | 3.0 | 10.0 | 0.00 | 0.00 | 0.00 | 48 | 1014.8 |
| 20260509182950 | 65 | 62 | 6.0 | 9.0 | 0.00 | 0.00 | 0.00 | 48 | 1014.8 |
| 20260509182450 | 66 | 59 | 6.0 | 9.0 | 0.00 | 0.00 | 0.00 | 48 | 1014.7 |
| 20260509181950 | 66 | 48 | 3.0 | 7.0 | 0.00 | 0.00 | 0.00 | 48 | 1014.7 |
| 20260509181450 | 66 | 61 | 4.0 | 9.0 | 0.00 | 0.00 | 0.00 | 47 | 1014.7 |
| 20260509180950 | 66 | 30 | 2.0 | 9.0 | 0.00 | 0.00 | 0.00 | 49 | 1014.6 |
| 20260509180450 | 66 | 38 | 4.0 | 11.0 | 0.00 | 0.00 | 0.00 | 48 | 1014.6 |
| 20260509175950 | 66 | 53 | 2.0 | 11.0 | 0.00 | 0.00 | 0.00 | 48 | 1014.6 |
| 20260509175450 | 66 | 26 | 6.0 | 11.0 | 0.00 | 0.00 | 0.00 | 46 | 1014.6 |